This demonstration page uses our WeatherBlox Daily Observations layout. Learn more.

Left ArrowRight Arrow

39.92423, -83.80882

Hourly Observations for June 26, 2021

Temp ( °F °C ) Dew Point ( °F °C ) Humidity (%) Winds ( mph kmh ) Pressure ( in mb ) Visibility ( mi km ) Precip ( " mm )
12:56 am 00:56 Cloudy 74 23.3 73 22.8 97 97 S 6 9 30.05 1018 10 16 N/A
1:56 am 01:56 Mostly Clear 74 23.3 72 22.2 94 94 SSW 6 9 30.04 1017 10 16 N/A
2:56 am 02:56 Clear 74 23.3 72 22.2 94 94 SSW 8 13 30.03 1017 10 16 N/A
3:56 am 03:56 Clear 72 22.2 72 22.2 100 100 SSW 6 9 30.03 1017 10 16 N/A
4:56 am 04:56 Clear 72 22.2 72 22.2 100 100 SSW 6 9 30.03 1017 10 16 N/A
5:56 am 05:56 Clear 71 21.7 71 21.7 100 100 S 6 9 30.03 1017 10 16 N/A
6:56 am 06:56 Sunny 72 22.2 72 22.2 100 100 S 9 15 30.04 1017 10 16 N/A
7:56 am 07:56 Sunny 74 23.3 72 22.2 94 94 SSW 10 17 30.04 1017 10 16 N/A
8:56 am 08:56 Mostly Cloudy 75 23.9 71 21.7 88 88 SSW 14 22 30.06 1018 10 16 N/A
9:56 am 09:56 Mostly Cloudy 76 24.4 70 21.1 82 82 SSW 12 19 30.06 1018 10 16 N/A
10:56 am 10:56 Mostly Cloudy 77 25 70 21.1 79 79 SSW 14 22 30.06 1018 10 16 N/A
11:56 am 11:56 Partly Cloudy 79 26.1 71 21.7 77 77 SSW 13 20 30.05 1018 10 16 N/A
12:13 pm 12:13 Mostly Cloudy 81 27 72 22 74 74 SSW 10 17 30.03 1017 10 16 N/A
12:45 pm 12:45 Cloudy 82 28 72 22 70 70 SSW 12 19 30.02 1017 10 16 N/A
12:56 pm 12:56 Cloudy 82 27.8 71 21.7 69 69 S 13 20 30.06 1018 10 16 N/A
1:56 pm 13:56 Cloudy 82 27.8 71 21.7 69 69 SSW 12 19 30.06 1018 10 16 N/A
2:56 pm 14:56 Partly Cloudy 85 29.4 71 21.7 63 63 SSW 12 19 30.03 1017 10 16 N/A
3:56 pm 15:56 Cloudy 84 28.9 71 21.7 65 65 SSW 12 19 30.03 1017 10 16 N/A
4:56 pm 16:56 Mostly Cloudy 84 28.9 70 21.1 63 63 S 13 20 30.01 1016 10 16 N/A
5:56 pm 17:56 Mostly Cloudy 84 28.9 69 20.6 61 61 S 15 24 30.01 1016 10 16 N/A
6:56 pm 18:56 Mostly Sunny 83 28.3 69 20.6 63 63 S 17 28 29.99 1016 10 16 N/A
7:56 pm 19:56 Sunny 82 27.8 68 20 63 63 S 12 19 30.00 1016 10 16 N/A
8:56 pm 20:56 Sunny 79 26.1 69 20.6 72 72 S 9 15 29.99 1016 10 16 N/A
9:56 pm 21:56 Clear 77 25 68 20 74 74 SSW 5 7 30.02 1017 10 16 N/A
10:56 pm 22:56 Clear 75 23.9 68 20 79 79 S 5 7 30.04 1017 10 16 N/A
11:56 pm 23:56 Clear 75 23.9 69 20.6 82 82 S 6 9 30.03 1017 10 16 N/A

Powered by AerisWeather